Weather History for KMAI - October, 2011

Change the Weather History Date:

Monday, October 31, 2011

  Actual Average Record
Temperature  
Mean Temperature 63 °F 64 °F  
Max Temperature 75 °F 76 °F 86 °F (1998)
Min Temperature 53 °F 52 °F 42 °F (2005)
Degree Days  
Heating Degree Days 2    
Month to date heating degree days  
Since 1 July heating degree days  
Cooling Degree Days 0    
Month to date cooling degree days  
Year to date cooling degree days  
Growing Degree Days 13 (Base 50)    
Moisture  
Dew Point 48 °F    
Average Humidity 62    
Maximum Humidity 80    
Minimum Humidity 46    
Precipitation  
Precipitation 0.00 in 0.12 in 0.43 in (1997)
Month to date precipitation 3.42  
Year to date precipitation 45.55  
Sea Level Pressure  
Sea Level Pressure 30.14 in    
Wind  
Wind Speed 6 mph (NE)    
Max Wind Speed 9 mph    
Max Gust Speed -    
Visibility 10 miles    
Events Rain    
T = Trace of Precipitation, MM = Missing Value Source: NWS Daily Summary

Daily Weather History Graph

Daily Weather History Graph

Search for Another Location

Airport or City:

Trip Planner

Search our weather history database for the weather conditions in past years. The results will help you decide how hot, cold, wet, or windy it might be!

Date:

Astronomy

Oct. 31, 2011 Rise Set
Actual Time 6:54 AM CDT 5:53 PM CDT
Civil Twilight 6:29 AM CDT 6:18 PM CDT
Nautical Twilight 6:01 AM CDT 6:46 PM CDT
Astronomical Twilight 5:33 AM CDT 7:15 PM CDT
Moon 11:52 AM CDT (10/31) 10:35 PM CDT (10/31)
Length of Visible Light 11h 48m
Length of Day
10h 58m
Waxing Crescent, 30% of the Moon is Illuminated
Oct 31
Waxing Crescent
Nov 2
First Quarter
Nov 10
Full
Nov 18
Last Quarter
Nov 25
New

Hourly Weather History & Observations

Time (CDT) Temp. Dew Point Humidity Pressure Visibility Wind Dir Wind Speed Gust Speed Precip Events Conditions
12:53 AM 54.0 °F 39.9 °F 59% 30.18 in 10.0 mi ENE 4.6 mph - N/A   Overcast
1:53 AM 53.1 °F 42.1 °F 66% 30.17 in 10.0 mi NNE 3.5 mph - N/A   Scattered Clouds
2:53 AM 53.1 °F 42.1 °F 66% 30.16 in 10.0 mi NNE 6.9 mph - N/A   Overcast
3:53 AM 54.0 °F 43.0 °F 66% 30.16 in 10.0 mi NNE 6.9 mph - N/A   Overcast
4:53 AM 54.0 °F 45.0 °F 72% 30.15 in 10.0 mi NNE 5.8 mph - N/A   Overcast
5:53 AM 55.0 °F 46.0 °F 72% 30.16 in 10.0 mi NNE 6.9 mph - 0.00 in   Overcast
6:53 AM 55.0 °F 46.0 °F 72% 30.16 in 10.0 mi North 4.6 mph - 0.00 in   Overcast
8:53 AM 54.0 °F 46.0 °F 75% 30.17 in 10.0 mi ENE 5.8 mph - 0.00 in Rain Light Rain
9:53 AM 59.0 °F 45.0 °F 60% 30.17 in 10.0 mi NE 6.9 mph - 0.00 in   Overcast
10:53 AM 64.0 °F 48.0 °F 56% 30.17 in 10.0 mi East 5.8 mph - N/A   Scattered Clouds
11:53 AM 68.0 °F 50.0 °F 52% 30.14 in 10.0 mi ENE 4.6 mph - N/A   Mostly Cloudy
12:53 PM 70.0 °F 51.1 °F 51% 30.11 in 10.0 mi Variable 5.8 mph - N/A   Scattered Clouds
1:53 PM 73.9 °F 52.0 °F 46% 30.09 in 10.0 mi Variable 4.6 mph - N/A   Clear
2:53 PM 73.9 °F 52.0 °F 46% 30.08 in 10.0 mi North 8.1 mph - N/A   Clear
3:53 PM 73.0 °F 51.1 °F 46% 30.06 in 10.0 mi NNE 6.9 mph - N/A   Partly Cloudy
4:53 PM 73.0 °F 51.1 °F 46% 30.07 in 10.0 mi NE 9.2 mph - N/A   Scattered Clouds
5:53 PM 69.1 °F 50.0 °F 51% 30.09 in 10.0 mi North 4.6 mph - N/A   Clear
6:53 PM 64.9 °F 51.1 °F 61% 30.12 in 10.0 mi North 5.8 mph - N/A   Clear
7:53 PM 63.0 °F 51.1 °F 65% 30.14 in 10.0 mi NNE 5.8 mph - N/A   Clear
8:53 PM 60.1 °F 50.0 °F 69% 30.16 in 10.0 mi ENE 4.6 mph - N/A   Clear
9:53 PM 59.0 °F 51.1 °F 75% 30.18 in 10.0 mi ENE 8.1 mph - N/A   Clear
10:53 PM 55.9 °F 50.0 °F 80% 30.18 in 10.0 mi NE 4.6 mph - N/A   Clear
11:53 PM 54.0 °F 48.0 °F 80% 30.18 in 10.0 mi ENE 4.6 mph - N/A   Clear